Weather in Ili

Russia / Irkutsk Oblast     54°09′58″N   101°22′59″E
temp.,
°C
wind,
m/s
gust,
m/s
humid.,
%
clouds,
%
prec.,
mm/h
press.,
hPa
HPBL,
m
12 may, wed
wed1223:00+7nw336339 0.0 101539
02:00+5n118829 0.2 101510
05:00+4n359582 0.0 1015105
08:00+3nnw41095100 0.6 1016610
11:00+6n4671100 0.8 10161096
14:00+10n573999 0.8 10142264
17:00+11n5732100 0.0 10132425
20:00+8ne464399 0.0 1015519
13 may, thu
thu1323:00+4nne224998 0.0 101740
02:00+3nne2256100 0.0 101742
05:00+1nne226565 0.0 101828
08:00+4nne2454100 0.0 1019378
11:00+7n4539100 0.1 10182165
14:00+9n3529100 0.1 10182750
17:00+10nne342460 0.0 10172671
20:00+8nne11371 0.0 101814
14 may, fri
fri1423:00+4ene11443 0.0 101910
02:00+2e22590 0.0 101920
05:00+1se22660 0.0 101924
08:00+6se35500 0.0 1017283
11:00+11sse56300 0.0 10151148
14:00+15sse45255 0.0 10121623
17:00+16sse452211 0.0 10101872
20:00+12se4836100 0.0 1009224
15 may, sat
sat1523:00+9se4134368 0.0 1010272
02:00+6w375697 0.0 1012153
05:00+5nw61287100 0.0 1015831
08:00+4nw51182100 0.3 1019867
11:00+8wnw71144100 0.0 10191976
14:00+10nw71035100 0.0 10192437
17:00+11nw5104083 0.0 10172109
20:00+9wnw6850100 0.0 10181308
16 may, sun
sun1623:00+6wsw51084100 0.5 1018968
02:00+7sw51386100 0.9 1016608
05:00+7sw41384100 0.1 1016399
08:00+9w51567100 0.1 1015730
11:00+8wnw41385100 1.0 1016503
14:00+10w41286100 1.7 1015667
17:00+9wsw2990100 0.4 1014340
20:00+9ssw239493 0.7 101261